Regional Weather Roundup
Issued by NWS Raleigh/Durham, NC

Home | Current Version | Previous Version | Text Only | Print | Product List | Glossary On
Versions: 1 2 3 4 5 6 7 8 9 10 11 12 13 14 15 16 17 18 19 20 21 22 23 24 25 26 27 28 29 30 31 32 33 34 35 36 37 38 39 40 41 42 43 44 45 46 47 48 49 50
000
ASUS42 KRAH 301810
RWRRAH
NORTH CAROLINA WEATHER ROUNDUP
NATIONAL WEATHER SERVICE RALEIGH NC
200 PM EDT TUE SEP 30 2014

NOTE: "FAIR" INDICATES FEW OR NO CLOUDS BELOW 12,000 FEET WITH NO
SIGNIFICANT WEATHER AND/OR OBSTRUCTIONS TO VISIBILITY.

NCZ001-053-055-056-065-067-301900-
WESTERN NORTH CAROLINA

CITY           SKY/WX    TMP DP  RH WIND       PRES   REMARKS
ASHEVILLE      SUNNY     77  53  43 N9G21     29.97F
JEFFERSON      SUNNY     71  46  40 NW10      30.01F
MORGANTON      SUNNY     79  54  41 CALM      29.96F
HICKORY        MOSUNNY   78  60  53 W5        29.91F
RUTHERFORDTON  MOSUNNY   80  61  50 CALM      29.92F
MOUNT AIRY     PTSUNNY   82  59  46 NE8       29.93F
BOONE          SUNNY     72  49  44 NW10      30.01F
$$

NCZ021-022-025-041-071-084-088-301900-
CENTRAL NORTH CAROLINA

CITY           SKY/WX    TMP DP  RH WIND       PRES   REMARKS
CHARLOTTE      MOSUNNY   80  59  48 W3        29.91F
GREENSBORO     MOSUNNY   78  64  61 VRB5      29.89F
WINSTON-SALEM  MOSUNNY   79  58  48 VRB6      29.91F
RALEIGH-DURHAM CLOUDY    68  61  78 N3        29.91F
FORT BRAGG     SUNNY     75  65  71 VRB7      29.88F
FAYETTEVILLE   SUNNY     77  64  64 NE7       29.88F
BURLINGTON     SUNNY     76  63  64 CALM      29.89F
LAURINBURG     MOSUNNY   78  61  55 NW3       29.88F
$$

NCZ011-015-027-028-043-044-047-080-103-301900-
NORTHEASTERN NORTH CAROLINA

CITY           SKY/WX    TMP DP  RH WIND       PRES   REMARKS
ROCKY MT-WILSO CLOUDY    72  63  73 N5        29.90F
GREENVILLE     MOSUNNY   79  63  57 NE5       29.90F
WASHINGTON     MOSUNNY   78  63  60 NE5       29.87F
ELIZABETH CITY SUNNY     77  62  59 NE6       29.87F
MANTEO         MOSUNNY   74  63  69 NE10      29.87F
CAPE HATTERAS  SUNNY     73  66  78 VRB7      29.86F
$$

NCZ078-087-090-091-093-098-101-301900-
SOUTHEASTERN NORTH CAROLINA

CITY           SKY/WX    TMP DP  RH WIND       PRES   REMARKS
LUMBERTON      PTSUNNY   78  63  59 VRB3      29.86F
GOLDSBORO      MOSUNNY   75  68  78 CALM      29.86F
KINSTON        MOSUNNY   77  63  61 N7        29.88F
KENANSVILLE    MOSUNNY   78  61  56 NW3       29.87F
NEW BERN       MOSUNNY   80  64  58 NE9       29.87F
CHERRY POINT   MOSUNNY   79  64  60 NE5       29.86F
BEAUFORT       SUNNY     79  62  56 NE9       29.85F
JACKSONVILLE   MOSUNNY   79  63  57 N5        29.85F
WILMINGTON     SUNNY     79  64  60 N7        29.84F
$$




USA.gov is the U.S. government's official web portal to all federal, state and local government web resources and services.